• In Moldova, Republic
  • List of Countries
  • For 7 days
  • Water Temperature
  • Satellite Maps
  • Weather Map
  • Weather Widgets
  • user-avatar
    Login

    Hourly Weather Yulara

    Today, 22 February, Thursday

    Time Temperature Precipitation Wind Pressure Humidity
    00:00 +35°C° 0 mm 5 mps 711 mmHg 33%
    01:00 +34°C° 0 mm 5 mps 711 mmHg 37%
    02:00 +34°C° 0 mm 5 mps 711 mmHg 41%
    03:00 +33°C° 0 mm 5 mps 711 mmHg 46%
    04:00 +32°C° 0 mm 4 mps 711 mmHg 48%
    05:00 +31°C° 0 mm 3 mps 711 mmHg 51%
    06:00 +30°C° 0 mm 2 mps 711 mmHg 54%
    07:00 +31°C° 0 mm 3 mps 712 mmHg 51%
    08:00 +33°C° 0 mm 3 mps 712 mmHg 48%
    09:00 +34°C° 0 mm 4 mps 712 mmHg 45%
    10:00 +35°C° 0 mm 4 mps 712 mmHg 40%
    11:00 +37°C° 0 mm 4 mps 712 mmHg 36%
    12:00 +38°C° 0 mm 4 mps 712 mmHg 31%
    13:00 +38°C° 0 mm 4 mps 711 mmHg 29%
    14:00 +40°C° 0 mm 5 mps 711 mmHg 28%
    15:00 +40°C° 0 mm 5 mps 711 mmHg 26%
    16:00 +40°C° 0 mm 5 mps 711 mmHg 27%
    17:00 +39°C° 0 mm 5 mps 711 mmHg 28%
    18:00 +39°C° 0 mm 5 mps 711 mmHg 29%
    19:00 +38°C° 0 mm 6 mps 711 mmHg 31%
    20:00 +36°C° 0 mm 6 mps 711 mmHg 33%
    21:00 +35°C° 0 mm 7 mps 712 mmHg 35%
    22:00 +34°C° 0 mm 7 mps 712 mmHg 38%
    23:00 +33°C° 0 mm 7 mps 712 mmHg 41%

    Tomorrow, 23 February, Friday

    Time Temperature Precipitation Wind Pressure Humidity
    00:00 +32°C° 0 mm 8 mps 712 mmHg 43%
    01:00 +32°C° 0 mm 7 mps 712 mmHg 46%
    02:00 +30°C° 0 mm 7 mps 712 mmHg 48%
    03:00 +29°C° 0 mm 7 mps 712 mmHg 50%
    04:00 +29°C° 0 mm 7 mps 712 mmHg 53%
    05:00 +28°C° 0 mm 6 mps 713 mmHg 55%
    06:00 +28°C° 0 mm 6 mps 713 mmHg 58%
    07:00 +28°C° 0 mm 6 mps 713 mmHg 55%
    08:00 +29°C° 0 mm 6 mps 714 mmHg 51%
    09:00 +30°C° 0 mm 6 mps 714 mmHg 48%
    10:00 +33°C° 0 mm 5 mps 714 mmHg 44%
    11:00 +34°C° 0 mm 4 mps 714 mmHg 40%
    12:00 +35°C° 0 mm 3 mps 714 mmHg 35%
    13:00 +36°C° 0 mm 3 mps 713 mmHg 33%
    14:00 +37°C° 0 mm 3 mps 713 mmHg 31%
    15:00 +38°C° 0 mm 2 mps 712 mmHg 29%
    16:00 +37°C° 0 mm 2 mps 712 mmHg 29%
    17:00 +37°C° 0 mm 3 mps 712 mmHg 29%
    18:00 +37°C° 0 mm 3 mps 712 mmHg 29%
    19:00 +37°C° 0 mm 3 mps 713 mmHg 29%
    20:00 +36°C° 0 mm 4 mps 713 mmHg 29%
    21:00 +36°C° 0 mm 4 mps 714 mmHg 29%
    22:00 +35°C° 0 mm 5 mps 714 mmHg 30%
    23:00 +34°C° 0 mm 6 mps 714 mmHg 30%

    Day after tomorrow, 24 February, Saturday

    Time Temperature Precipitation Wind Pressure Humidity
    00:00 +33°C° 0 mm 7 mps 714 mmHg 31%
    01:00 +33°C° 0 mm 7 mps 714 mmHg 31%
    02:00 +32°C° 0 mm 7 mps 714 mmHg 32%
    03:00 +30°C° 0 mm 7 mps 713 mmHg 33%
    04:00 +30°C° 0 mm 7 mps 714 mmHg 36%
    05:00 +29°C° 0 mm 7 mps 714 mmHg 38%
    06:00 +28°C° 0 mm 7 mps 715 mmHg 41%
    07:00 +29°C° 0 mm 8 mps 715 mmHg 41%
    08:00 +31°C° 0 mm 8 mps 716 mmHg 41%
    09:00 +32°C° 0 mm 8 mps 717 mmHg 41%
    10:00 +33°C° 0 mm 8 mps 717 mmHg 38%
    11:00 +35°C° 0 mm 7 mps 717 mmHg 34%
    12:00 +36°C° 0 mm 7 mps 716 mmHg 30%
    13:00 +36°C° 0 mm 6 mps 716 mmHg 29%
    14:00 +36°C° 0 mm 6 mps 715 mmHg 29%
    15:00 +36°C° 0 mm 5 mps 715 mmHg 28%
    16:00 +36°C° 0 mm 6 mps 715 mmHg 26%
    17:00 +36°C° 0 mm 6 mps 715 mmHg 25%
    18:00 +36°C° 0 mm 7 mps 715 mmHg 23%
    19:00 +34°C° 0 mm 7 mps 716 mmHg 23%
    20:00 +33°C° 0 mm 8 mps 717 mmHg 23%
    21:00 +32°C° 0 mm 9 mps 717 mmHg 22%
    22:00 +31°C° 0 mm 9 mps 717 mmHg 25%
    23:00 +29°C° 0 mm 8 mps 717 mmHg 27%

    25 February, Sunday

    Time Temperature Precipitation Wind Pressure Humidity
    00:00 +29°C° 0 mm 8 mps 717 mmHg 30%
    01:00 +28°C° 0 mm 9 mps 717 mmHg 35%
    02:00 +27°C° 0 mm 9 mps 716 mmHg 40%
    03:00 +26°C° 0 mm 9 mps 716 mmHg 46%
    04:00 +24°C° 0 mm 9 mps 716 mmHg 48%
    05:00 +23°C° 0 mm 8 mps 717 mmHg 50%
    06:00 +22°C° 0 mm 8 mps 717 mmHg 53%
    07:00 +23°C° 0 mm 8 mps 717 mmHg 49%
    08:00 +24°C° 0 mm 7 mps 718 mmHg 45%
    09:00 +26°C° 0 mm 7 mps 718 mmHg 40%
    10:00 +28°C° 0 mm 7 mps 718 mmHg 36%
    11:00 +29°C° 0 mm 6 mps 717 mmHg 31%
    12:00 +32°C° 0 mm 5 mps 717 mmHg 27%
    13:00 +33°C° 0 mm 5 mps 716 mmHg 24%
    14:00 +34°C° 0 mm 5 mps 715 mmHg 20%
    15:00 +35°C° 0 mm 5 mps 714 mmHg 17%
    16:00 +35°C° 0 mm 5 mps 715 mmHg 15%
    17:00 +35°C° 0 mm 5 mps 715 mmHg 13%
    18:00 +34°C° 0 mm 5 mps 715 mmHg 12%
    19:00 +33°C° 0 mm 5 mps 715 mmHg 12%
    20:00 +32°C° 0 mm 5 mps 716 mmHg 12%
    21:00 +29°C° 0 mm 5 mps 716 mmHg 13%
    22:00 +28°C° 0 mm 5 mps 716 mmHg 14%
    23:00 +28°C° 0 mm 5 mps 716 mmHg 15%

    26 February, Monday

    Time Temperature Precipitation Wind Pressure Humidity
    00:00 +27°C° 0 mm 5 mps 716 mmHg 17%
    01:00 +26°C° 0 mm 5 mps 716 mmHg 18%
    02:00 +25°C° 0 mm 5 mps 715 mmHg 19%
    03:00 +25°C° 0 mm 5 mps 715 mmHg 20%
    04:00 +23°C° 0 mm 5 mps 715 mmHg 21%
    05:00 +23°C° 0 mm 5 mps 715 mmHg 22%
    06:00 +22°C° 0 mm 4 mps 715 mmHg 23%
    07:00 +25°C° 0 mm 5 mps 716 mmHg 21%
    08:00 +27°C° 0 mm 6 mps 716 mmHg 19%
    09:00 +28°C° 0 mm 6 mps 716 mmHg 17%
    10:00 +30°C° 0 mm 5 mps 716 mmHg 15%
    11:00 +33°C° 0 mm 5 mps 715 mmHg 14%
    12:00 +34°C° 0 mm 4 mps 715 mmHg 12%
    13:00 +35°C° 0 mm 3 mps 714 mmHg 11%
    14:00 +36°C° 0 mm 3 mps 714 mmHg 9%
    15:00 +37°C° 0 mm 2 mps 713 mmHg 8%
    16:00 +37°C° 0 mm 2 mps 713 mmHg 8%
    17:00 +37°C° 0 mm 3 mps 713 mmHg 8%
    18:00 +37°C° 0 mm 3 mps 713 mmHg 7%
    19:00 +35°C° 0 mm 3 mps 714 mmHg 8%
    20:00 +34°C° 0 mm 3 mps 714 mmHg 9%
    21:00 +31°C° 0 mm 3 mps 714 mmHg 10%
    22:00 +30°C° 0 mm 3 mps 714 mmHg 10%
    23:00 +30°C° 0 mm 4 mps 714 mmHg 11%

    27 February, Tuesday

    Time Temperature Precipitation Wind Pressure Humidity
    00:00 +29°C° 0 mm 4 mps 714 mmHg 12%
    01:00 +28°C° 0 mm 4 mps 714 mmHg 13%
    02:00 +28°C° 0 mm 4 mps 713 mmHg 13%
    03:00 +27°C° 0 mm 4 mps 713 mmHg 14%
    04:00 +26°C° 0 mm 4 mps 713 mmHg 15%
    05:00 +26°C° 0 mm 4 mps 713 mmHg 16%
    06:00 +25°C° 0 mm 3 mps 714 mmHg 16%
    07:00 +28°C° 0 mm 4 mps 714 mmHg 14%
    08:00 +30°C° 0 mm 5 mps 715 mmHg 13%
    09:00 +34°C° 0 mm 5 mps 715 mmHg 11%
    10:00 +35°C° 0 mm 4 mps 715 mmHg 10%
    11:00 +37°C° 0 mm 3 mps 714 mmHg 9%
    12:00 +38°C° 0 mm 3 mps 714 mmHg 8%
    13:00 +39°C° 0 mm 2 mps 713 mmHg 9%
    14:00 +40°C° 0 mm 2 mps 713 mmHg 9%
    15:00 +41°C° 0 mm 2 mps 712 mmHg 10%
    16:00 +41°C° 0 mm 2 mps 712 mmHg 10%
    17:00 +41°C° 0 mm 2 mps 713 mmHg 10%
    18:00 +41°C° 0 mm 2 mps 713 mmHg 10%
    19:00 +39°C° 0 mm 2 mps 713 mmHg 11%
    20:00 +37°C° 0 mm 2 mps 713 mmHg 12%
    21:00 +36°C° 0 mm 2 mps 713 mmHg 13%
    22:00 +35°C° 0 mm 2 mps 713 mmHg 14%
    23:00 +35°C° 0 mm 2 mps 713 mmHg 14%
    Show more